Cahokia, IL

7:35 AM CDT on August 27, 2016 (GMT -0500)
Saint Louis Downtown

Weather History for KCPS - December, 2011

Change the Weather History Date:

Tuesday, December 13, 2011

  Actual Average Record
Temperature  
Mean Temperature 44 °F -  
Max Temperature 46 °F 37 °F 72 °F (1948)
Min Temperature 41 °F 29 °F 5 °F (1962)
Degree Days  
Heating Degree Days 22    
Moisture  
Dew Point 42 °F    
Average Humidity 90    
Maximum Humidity 100    
Minimum Humidity 76    
Precipitation  
Precipitation 0.38 in - - ()
Sea Level Pressure  
Sea Level Pressure 30.36 in    
Wind  
Wind Speed 3 mph (South)    
Max Wind Speed 9 mph    
Max Gust Speed -    
Visibility 7 miles    
Events Rain    
Averages and records for this station are not official NWS values.
T = Trace of Precipitation, MM = Missing Value Source: NWS Daily Summary

Daily Weather History Graph

Daily Weather History Graph

Search for Another Location

Airport or City:

Trip Planner

Search our weather history database for the weather conditions in past years. The results will help you decide how hot, cold, wet, or windy it might be!

Date:

Astronomy

Dec. 13, 2011 Rise Set
Actual Time 7:09 AM CST 4:39 PM CST
Civil Twilight 6:39 AM CST 5:09 PM CST
Nautical Twilight 6:06 AM CST 5:42 PM CST
Astronomical Twilight 5:34 AM CST 6:15 PM CST
Moon 7:53 PM CST (12/13) 9:20 AM CST (12/13)
Length of Visible Light 10h 29m
Length of Day
9h 30m
Waning Gibbous, 90% of the Moon is Illuminated
Dec 13
Waning Gibbous
Dec 17
Last Quarter
Dec 24
New
Jan 1
First Quarter
Jan 9
Full

Hourly Weather History & Observations

Time (CST) Temp. Windchill Dew Point Humidity Pressure Visibility Wind Dir Wind Speed Gust Speed Precip Events Conditions
12:53 AM 43.0 °F - 36.0 °F 76% 30.39 in 10.0 mi Calm Calm - 0.00 in   Overcast
1:53 AM 43.0 °F - 37.0 °F 80% 30.40 in 10.0 mi Calm Calm - 0.00 in   Overcast
2:53 AM 43.0 °F - 37.0 °F 80% 30.40 in 10.0 mi Calm Calm - N/A   Overcast
3:53 AM 43.0 °F - 37.9 °F 82% 30.40 in 9.0 mi Calm Calm - 0.00 in Rain Light Rain
5:53 AM 41.0 °F 39.0 °F 37.9 °F 89% 30.41 in 7.0 mi SSE 3.5 mph - 0.03 in Rain Light Rain
6:53 AM 41.0 °F 37.1 °F 39.0 °F 93% 30.41 in 8.0 mi SSE 5.8 mph - 0.01 in   Overcast
7:15 AM 41.0 °F 38.0 °F 39.2 °F 93% 30.41 in 8.0 mi SSE 4.6 mph - N/A   Overcast
7:53 AM 42.1 °F 40.2 °F 39.0 °F 89% 30.43 in 4.0 mi South 3.5 mph - 0.01 in Rain Light Rain
8:23 AM 42.8 °F - 39.2 °F 87% 30.42 in 8.0 mi Calm Calm - 0.00 in   Overcast
8:51 AM 42.8 °F 40.1 °F 39.2 °F 87% 30.43 in 4.0 mi South 4.6 mph - 0.01 in Rain Light Rain
8:53 AM 42.1 °F - 39.9 °F 92% 30.43 in 5.0 mi Calm Calm - 0.01 in Rain Light Rain
9:06 AM 42.8 °F 39.3 °F 39.2 °F 87% 30.42 in 4.0 mi SSE 5.8 mph - 0.01 in Rain Light Rain
9:51 AM 42.8 °F 40.1 °F 39.2 °F 87% 30.44 in 4.0 mi South 4.6 mph - 0.03 in Rain Light Rain
9:53 AM 43.0 °F 40.3 °F 39.9 °F 89% 30.44 in 4.0 mi South 4.6 mph - 0.03 in Rain Light Rain
10:53 AM 44.1 °F 41.5 °F 41.0 °F 89% 30.43 in 8.0 mi South 4.6 mph - 0.00 in   Overcast
11:00 AM 44.6 °F 41.4 °F 41.0 °F 87% 30.42 in 8.0 mi South 5.8 mph - N/A   Overcast
11:53 AM 44.1 °F 40.8 °F 42.1 °F 93% 30.40 in 10.0 mi South 5.8 mph - N/A   Overcast
12:53 PM 45.0 °F 41.2 °F 42.1 °F 90% 30.36 in 9.0 mi South 6.9 mph - 0.00 in Rain Light Rain
1:21 PM 46.4 °F 43.5 °F 42.8 °F 87% 30.34 in 8.0 mi South 5.8 mph - 0.00 in Rain Light Rain
1:31 PM 46.4 °F 43.5 °F 42.8 °F 87% 30.34 in 4.0 mi South 5.8 mph - 0.01 in Rain Light Rain
1:38 PM 44.6 °F 41.4 °F 42.8 °F 93% 30.34 in 3.0 mi South 5.8 mph - 0.02 in Rain Light Rain
1:53 PM 45.0 °F 43.5 °F 43.0 °F 93% 30.35 in 4.0 mi SSW 3.5 mph - 0.03 in Rain Light Rain
2:35 PM 46.4 °F 45.2 °F 42.8 °F 87% 30.34 in 8.0 mi SSW 3.5 mph - 0.02 in Rain Light Rain
2:50 PM 46.4 °F 44.3 °F 42.8 °F 87% 30.35 in 9.0 mi SSW 4.6 mph - 0.02 in Rain Light Rain
2:53 PM 46.0 °F 43.9 °F 43.0 °F 89% 30.36 in 6.0 mi SSW 4.6 mph - 0.03 in Rain Light Rain
3:12 PM 44.6 °F 43.1 °F 42.8 °F 93% 30.35 in 4.0 mi SW 3.5 mph - 0.05 in Rain Rain
3:35 PM 44.6 °F 42.2 °F 42.8 °F 93% 30.34 in 5.0 mi South 4.6 mph - 0.09 in Rain Light Rain
3:53 PM 45.0 °F 43.5 °F 43.0 °F 93% 30.34 in 3.0 mi South 3.5 mph - 0.12 in Rain Light Rain
4:05 PM 44.6 °F 43.1 °F 42.8 °F 93% 30.33 in 5.0 mi South 3.5 mph - 0.02 in Rain Light Rain
4:17 PM 44.6 °F - 44.6 °F 100% 30.33 in 5.0 mi Calm Calm - 0.03 in Rain Light Rain
4:53 PM 45.0 °F 43.5 °F 43.0 °F 93% 30.33 in 10.0 mi SSE 3.5 mph - 0.07 in Rain Light Rain
5:53 PM 45.0 °F 43.5 °F 43.0 °F 93% 30.33 in 10.0 mi SSE 3.5 mph - 0.01 in   Overcast
6:53 PM 45.0 °F 43.5 °F 43.0 °F 93% 30.31 in 8.0 mi SSE 3.5 mph - N/A   Overcast
7:00 PM 44.6 °F 41.4 °F 42.8 °F 93% 30.30 in 8.0 mi SSE 5.8 mph - N/A   Overcast
7:53 PM 45.0 °F 43.5 °F 43.0 °F 93% 30.30 in 10.0 mi SSE 3.5 mph - N/A   Overcast
8:53 PM 46.0 °F 42.5 °F 43.0 °F 89% 30.26 in 10.0 mi SSE 6.9 mph - 0.00 in   Mostly Cloudy
9:53 PM 46.0 °F 41.4 °F 43.0 °F 89% 30.25 in 8.0 mi SSE 9.2 mph - 0.02 in Rain Light Rain
10:28 PM 46.4 °F 44.3 °F 44.6 °F 93% 30.24 in 7.0 mi South 4.6 mph - 0.01 in Rain Light Rain
10:35 PM 46.4 °F 43.5 °F 44.6 °F 93% 30.24 in 7.0 mi South 5.8 mph - 0.01 in Rain Light Rain
10:53 PM 46.9 °F - 45.0 °F 93% 30.24 in 7.0 mi South 4.6 mph - 0.01 in   Overcast
11:53 PM 46.9 °F - 45.0 °F 93% 30.22 in 6.0 mi SSE 6.9 mph - 0.00 in Rain Light Rain